Temp
-4 -4 -4 -4 -4 -3 -3 -3 -3 -3 -3 -3 -3 -3 -3 -3 -3 -4 -3 -3 -3 -4 -4 -4 -4 -4 -5 -5 -4 -4 -4 -5 -6 -6 -3 -3 -3 -3 -4 -4 -4 -4 -4 -5 -4
-4 -3 -3 -3 -4 -3 -3 -3 -3 -3 -3 -3 -3 -3 -3 -3 -3 -3 -4 -4 -4 -4 -4 -4 -4 -4 -5 -5 -4 -5 -5 -5 -5 -6 -3 -3 -3 -3 -3 -4 -4 -4 -4 -4 -4
-4 -4 -4 -4 -4 -4 -3 -3 -3 -3 -3 -3 -3 -3 -3 -3 -3 -4 -3 -4 -4 -4 -4 -4 -4 -4 -4 -5 -4 -4 -5 -5 -6 -7 -6 -3 -3 -3 -3 -3 -3 -4 -4 -4 -4
-4 -4 -4 -4 -4 -4 -4 -3 -3 -3 -3 -3 -3 -3 -3 -3 -3 -3 -4 -4 -4 -4 -4 -4 -4 -4 -4 -3 -4 -4 -4 -5 -6 -7 -7 -3 -3 -5 -2 -3 -3 -3 -4 -4 -4
-4 -4 -4 -4 -4 -4 -4 -4 -4 -4 -3 -3 -3 -3 -3 -3 -3 -3 -4 -4 -4 -4 -4 -4 -5 -4 -4 -5 -4 -5 -4 -4 -5 -7 -6 -5 -6 -2 -2 -2 -2 -3 -3 -4 -4
-4 -4 -4 -4 -4 -4 -4 -4 -4 -4 -4 -4 -4 -3 -3 -3 -3 -3 -3 -4 -5 -4 -4 -4 -5 -5 -5 -5 -4 -5 -4 -5 -5 -7 -6 -5 -5 -3 -3 -3 -3 -2 -3 -3 -4
-3 -4 -4 -4 -4 -4 -4 -4 -4 -4 -4 -4 -4 -4 -3 -4 -3 -3 -4 -4 -4 -5 -5 -4 -4 -5 -5 -6 -4 -4 -5 -6 -5 -4 -6 -5 -4 -4 -3 -3 -2 -2 -3 -3 -3
-3 -3 -3 -4 -4 -4 -4 -4 -5 -5 -5 -4 -4 -4 -4 -4 -4 -4 -4 -4 -5 -5 -5 -5 -4 -5 -5 -5 -6 -5 -5 -5 -5 -5 -4 -4 -4 -5 -4 -3 -2 -2 -2 -3 -2
-3 -3 -3 -4 -4 -4 -4 -4 -5 -5 -5 -5 -5 -4 -4 -4 -4 -4 -4 -4 -4 -5 -5 -5 -5 -5 -5 -6 -6 -5 -6 -5 -5 -5 -4 -5 -5 -3 -5 -3 -3 -2 -2 -2 -2
-3 -4 -4 -4 -4 -4 -4 -4 -5 -5 -5 -5 -5 -5 -4 -4 -4 -4 -4 -5 -5 -5 -6 -6 -6 -6 -6 -6 -7 -6 -5 -5 -4 -5 -5 -5 -5 -4 -6 -6 -3 -3 -3 -2 -2
-3 -3 -4 -4 -4 -4 -4 -4 -4 -5 -5 -6 -6 -5 -5 -5 -5 -5 -5 -5 -5 -5 -6 -6 -6 -6 -6 -6 -7 -6 -5 -6 -6 -6 -5 -5 -5 -5 -4 -4 -4 -3 -3 -3 -2
-3 -3 -3 -3 -4 -4 -4 -4 -4 -5 -5 -6 -6 -6 -6 -5 -5 -5 -5 -5 -5 -6 -6 -6 -6 -6 -6 -7 -7 -7 -6 -6 -6 -6 -6 -5 -5 -5 -3 -4 -4 -3 -3 -3 -3
-3 -3 -3 -4 -4 -4 -4 -4 -4 -5 -6 -6 -7 -7 -7 -6 -6 -5 -5 -5 -6 -6 -6 -7 -7 -7 -7 -7 -9 -8 -7 -6 -7 -6 -5 -6 -6 -4 -4 -5 -4 -4 -3 -4 -3
-3 -3 -3 -4 -4 -4 -4 -5 -5 -5 -6 -5 -7 -7 -7 -7 -7 -6 -6 -6 -6 -6 -6 -7 -8 -9 -8 -8 -7 -7 -7 -6 -6 -7 -7 -6 -6 -6 -5 -6 -5 -5 -5 -4 -4
-3 -3 -3 -4 -4 -4 -4 -5 -5 -5 -6 -6 -7 -7 -7 -8 -6 -7 -7 -6 -6 -7 -7 -7 -8 -9 -8 -7 -6 -6 -9 -8 -7 -7 -7 -7 -7 -6 -6 -5 -5 -5 -5 -3 -3
-3 -3 -4 -4 -5 -5 -5 -5 -6 -6 -8 -7 -7 -8 -8 -9 -7 -7 -7 -7 -7 -7 -7 -8 -8 -9 -7 -7 -7 -7 -9 -8 -8 -8 -7 -7 -7 -6 -5 -6 -6 -6 -4 -5 -4
-3 -3 -4 -4 -5 -5 -6 -6 -6 -7 -7 -8 -8 -8 -9 -9 -9 -8 -8 -8 -8 -8 -7 -8 -8 -8 -7 -8 -8 -7 -8 -8 -7 -7 -8 -7 -7 -7 -6 -6 -6 -5 -5 -5 -4
-4 -4 -4 -5 -5 -5 -6 -7 -7 -9 -11 -9 -9 -9 -9 -10 -10 -8 -9 -9 -9 -9 -10 -9 -9 -8 -8 -8 -8 -7 -8 -9 -9 -8 -7 -7 -7 -7 -7 -6 -6 -5 -4 -6 -5
-4 -4 -4 -5 -5 -6 -6 -7 -8 -9 -10 -9 -10 -10 -10 -12 -12 -9 -9 -10 -10 -10 -11 -10 -10 -10 -9 -8 -9 -9 -8 -9 -8 -8 -7 -6 -6 -6 -7 -7 -6 -6 -7 -5 -5
-5 -5 -5 -5 -6 -7 -7 -8 -8 -8 -9 -9 -10 -11 -12 -12 -12 -12 -10 -10 -12 -11 -10 -11 -10 -11 -10 -9 -9 -9 -10 -9 -8 -8 -7 -6 -6 -7 -7 -6 -7 -7 -7 -6 -6
-5 -5 -6 -6 -7 -7 -8 -8 -9 -8 -9 -9 -11 -13 -12 -13 -13 -13 -13 -13 -12 -10 -11 -10 -11 -11 -11 -9 -9 -9 -9 -9 -9 -9 -8 -7 -6 -7 -8 -8 -8 -8 -8 -7 -6
-6 -6 -7 -6 -8 -8 -9 -9 -9 -9 -10 -10 -10 -12 -13 -13 -13 -13 -13 -14 -13 -11 -11 -11 -11 -11 -12 -10 -9 -9 -10 -9 -9 -9 -8 -7 -7 -7 -7 -8 -8 -8 -8 -7 -5
-7 -7 -6 -8 -9 -9 -9 -10 -9 -10 -10 -10 -11 -12 -14 -14 -14 -13 -13 -14 -13 -12 -11 -11 -12 -12 -11 -12 -11 -10 -11 -11 -9 -9 -9 -8 -8 -8 -8 -8 -8 -7 -7 -7 -7
-8 -9 -8 -9 -10 -10 -10 -11 -10 -11 -11 -11 -11 -13 -12 -13 -14 -14 -14 -14 -13 -12 -12 -11 -11 -11 -11 -12 -11 -11 -10 -10 -9 -10 -9 -9 -9 -9 -8 -7 -8 -8 -7 -7 -7
-9 -10 -10 -11 -10 -11 -11 -12 -12 -11 -11 -12 -12 -12 -13 -14 -14 -14 -14 -13 -13 -13 -13 -12 -12 -11 -11 -13 -12 -12 -12 -12 -11 -10 -10 -9 -9 -10 -8 -8 -10 -8 -8 -7 -8
-10 -10 -11 -12 -12 -11 -11 -12 -13 -14 -13 -13 -13 -13 -14 -15 -14 -15 -15 -14 -13 -14 -13 -13 -12 -12 -11 -13 -13 -12 -12 -12 -12 -11 -10 -10 -12 -10 -10 -10 -9 -9 -8 -8 -8
-11 -11 -11 -12 -12 -12 -12 -12 -14 -14 -15 -15 -14 -15 -15 -15 -14 -14 -14 -15 -14 -14 -14 -13 -13 -13 -12 -12 -14 -13 -12 -13 -13 -13 -11 -11 -13 -10 -9 -8 -8 -9 -9 -9 -8
Height
5881 5880 5880 5880 5879 5879 5880 5880 5881 5881 5881 5881 5881 5881 5881 5883 5884 5884 5885 5887 5890 5892 5894 5897 5899 5901 5899 5900 5903 5903 5904 5906 5909 5908 5907 5907 5907 5908 5908 5907 5906 5905 5905 5904 5904
5878 5878 5879 5879 5879 5879 5879 5880 5880 5881 5881 5881 5881 5880 5881 5882 5883 5884 5886 5886 5889 5891 5893 5896 5899 5903 5901 5902 5904 5905 5904 5907 5912 5911 5908 5908 5909 5910 5911 5910 5910 5909 5908 5907 5907
5876 5876 5876 5876 5876 5877 5877 5878 5878 5879 5880 5880 5880 5881 5881 5881 5883 5883 5885 5887 5888 5890 5892 5895 5899 5902 5903 5903 5899 5902 5901 5904 5916 5913 5910 5910 5911 5911 5912 5913 5912 5912 5911 5911 5910
5874 5874 5874 5874 5874 5874 5874 5875 5876 5877 5878 5878 5879 5880 5880 5881 5884 5882 5884 5885 5887 5889 5891 5894 5899 5901 5903 5900 5905 5899 5898 5910 5916 5914 5913 5912 5911 5913 5913 5916 5915 5915 5915 5914 5913
5872 5872 5871 5871 5872 5873 5872 5872 5872 5873 5875 5876 5877 5877 5878 5880 5881 5881 5882 5883 5886 5888 5890 5893 5896 5899 5902 5902 5903 5903 5902 5909 5915 5917 5913 5916 5915 5913 5916 5917 5917 5917 5917 5917 5916
5870 5869 5869 5869 5869 5869 5869 5869 5870 5871 5872 5873 5874 5875 5876 5877 5877 5879 5880 5882 5884 5886 5888 5891 5893 5895 5898 5902 5901 5903 5905 5910 5912 5912 5915 5914 5916 5915 5917 5919 5920 5919 5920 5919 5919
5868 5867 5867 5866 5865 5866 5866 5866 5866 5867 5868 5870 5871 5872 5873 5876 5874 5876 5878 5879 5881 5884 5887 5889 5891 5894 5897 5901 5901 5901 5902 5909 5911 5913 5916 5916 5915 5915 5916 5919 5920 5921 5922 5922 5921
5867 5866 5864 5863 5863 5862 5862 5862 5862 5863 5864 5866 5867 5869 5871 5871 5872 5873 5874 5876 5878 5881 5884 5889 5889 5892 5895 5896 5899 5902 5906 5908 5908 5909 5910 5915 5912 5915 5915 5918 5920 5922 5922 5923 5924
5865 5864 5862 5860 5860 5858 5858 5857 5857 5858 5860 5861 5862 5864 5868 5868 5869 5870 5871 5872 5874 5877 5881 5884 5888 5889 5891 5897 5900 5901 5903 5906 5908 5910 5910 5913 5914 5914 5912 5918 5920 5922 5923 5923 5924
5863 5862 5860 5859 5857 5856 5854 5854 5853 5853 5853 5854 5856 5859 5862 5864 5866 5867 5869 5870 5871 5873 5878 5881 5885 5887 5889 5892 5900 5904 5904 5905 5906 5910 5909 5910 5901 5898 5913 5917 5920 5921 5923 5924 5925
5862 5860 5857 5855 5854 5852 5851 5850 5851 5850 5848 5849 5851 5852 5856 5858 5861 5862 5864 5866 5867 5869 5873 5877 5880 5885 5889 5893 5896 5900 5899 5902 5905 5907 5904 5908 5908 5912 5912 5907 5920 5920 5922 5923 5925
5861 5858 5856 5853 5851 5849 5848 5846 5844 5844 5844 5842 5844 5847 5850 5852 5854 5858 5860 5863 5864 5866 5868 5872 5876 5883 5886 5890 5893 5895 5892 5899 5903 5904 5904 5908 5908 5908 5912 5908 5905 5919 5920 5922 5923
5859 5857 5854 5852 5849 5846 5844 5843 5840 5838 5838 5839 5839 5841 5844 5848 5849 5852 5855 5857 5859 5862 5864 5867 5876 5879 5882 5886 5889 5894 5896 5899 5901 5902 5903 5904 5908 5910 5912 5915 5919 5913 5918 5919 5921
5857 5855 5852 5849 5847 5844 5841 5839 5837 5834 5832 5833 5833 5835 5838 5840 5842 5846 5849 5853 5855 5858 5860 5864 5870 5873 5876 5880 5886 5891 5896 5896 5897 5899 5903 5903 5909 5911 5913 5915 5917 5917 5917 5919 5920
5855 5852 5848 5845 5843 5840 5838 5835 5833 5831 5828 5827 5830 5830 5833 5833 5835 5839 5844 5846 5850 5853 5857 5861 5864 5865 5869 5876 5881 5889 5894 5895 5894 5896 5905 5904 5906 5909 5912 5913 5918 5919 5921 5919 5920
5852 5848 5844 5841 5838 5837 5834 5832 5830 5828 5824 5823 5825 5825 5826 5828 5829 5832 5837 5842 5845 5848 5850 5856 5861 5859 5864 5872 5876 5882 5887 5888 5893 5895 5898 5904 5907 5908 5909 5912 5914 5917 5919 5919 5919
5847 5844 5840 5836 5835 5831 5829 5829 5827 5824 5822 5820 5819 5820 5821 5824 5825 5828 5832 5836 5841 5845 5848 5851 5851 5851 5859 5867 5871 5876 5880 5884 5889 5891 5894 5902 5905 5909 5908 5909 5908 5910 5914 5915 5915
5842 5839 5836 5833 5830 5827 5825 5824 5823 5821 5820 5817 5817 5817 5819 5820 5821 5824 5827 5831 5835 5839 5846 5846 5848 5851 5857 5861 5865 5873 5877 5882 5887 5892 5895 5898 5900 5905 5907 5910 5906 5903 5903 5910 5912
5836 5834 5830 5827 5824 5822 5820 5819 5819 5817 5816 5814 5814 5814 5816 5817 5818 5819 5823 5828 5830 5836 5840 5846 5845 5848 5847 5853 5859 5865 5868 5877 5884 5890 5894 5898 5899 5903 5900 5901 5903 5902 5903 5905 5887
5829 5826 5824 5821 5818 5816 5815 5812 5810 5810 5810 5810 5810 5812 5814 5816 5814 5816 5819 5824 5826 5825 5831 5834 5843 5841 5841 5847 5853 5858 5866 5870 5875 5881 5887 5894 5897 5898 5900 5900 5903 5903 5900 5899 5905
5820 5816 5818 5813 5810 5809 5808 5807 5804 5803 5804 5805 5805 5808 5810 5811 5809 5812 5817 5817 5816 5821 5827 5829 5835 5839 5838 5840 5846 5853 5856 5861 5872 5877 5883 5889 5894 5894 5888 5892 5896 5899 5897 5899 5905
5811 5807 5808 5803 5802 5800 5799 5798 5796 5795 5797 5797 5798 5800 5802 5806 5806 5809 5810 5806 5808 5816 5820 5827 5830 5836 5836 5837 5842 5848 5852 5857 5864 5871 5878 5884 5889 5881 5883 5881 5881 5880 5887 5894 5905
5801 5798 5795 5794 5793 5791 5791 5790 5787 5789 5788 5790 5792 5794 5796 5798 5800 5805 5801 5799 5801 5809 5812 5815 5821 5832 5838 5836 5835 5836 5844 5851 5857 5864 5872 5879 5887 5875 5874 5871 5875 5882 5892 5895 5897
5791 5789 5783 5786 5783 5782 5782 5781 5780 5781 5781 5783 5784 5784 5786 5790 5791 5796 5790 5791 5799 5801 5807 5811 5817 5821 5830 5832 5833 5833 5838 5843 5850 5858 5865 5870 5868 5865 5864 5872 5873 5878 5882 5887 5890
5780 5778 5774 5774 5773 5772 5773 5773 5771 5771 5773 5773 5775 5776 5779 5782 5783 5785 5786 5786 5792 5795 5800 5805 5809 5813 5816 5822 5824 5829 5831 5836 5839 5847 5855 5868 5857 5854 5852 5857 5860 5867 5872 5879 5883
5767 5765 5764 5766 5763 5762 5763 5763 5763 5764 5761 5765 5766 5770 5774 5777 5780 5780 5781 5777 5786 5789 5794 5798 5803 5807 5808 5810 5818 5822 5826 5830 5833 5838 5844 5849 5835 5842 5838 5842 5855 5860 5863 5869 5874
5753 5753 5751 5755 5752 5752 5754 5747 5750 5754 5754 5753 5757 5761 5767 5768 5768 5770 5772 5775 5776 5781 5788 5791 5795 5799 5805 5806 5808 5813 5818 5822 5825 5828 5834 5837 5831 5834 5835 5839 5849 5853 5856 5861 5866
Wind_Speed
8 7 5 5 5 5 4 3 1 1 0 1 1 5 5 5 5 5 7 9 13 15 13 15 16 12 9 5 12 12 20 19 4 5 7 8 8 8 7 8 9 12 12 12 11
8 7 6 6 6 7 5 5 5 3 2 3 2 4 4 7 7 6 5 7 11 17 16 15 16 14 12 14 2 17 23 21 19 10 4 7 7 9 6 7 9 10 10 11 11
8 9 9 8 8 9 10 9 9 7 6 5 5 4 6 6 7 9 7 7 10 15 19 16 15 14 13 11 14 2 23 22 1 8 6 8 5 7 4 6 7 8 8 10 11
10 10 10 11 11 11 11 13 13 13 12 9 7 6 6 6 5 9 10 9 8 11 18 20 16 14 11 9 14 21 14 15 13 4 9 7 6 4 7 5 5 6 8 9 10
11 11 11 12 12 13 14 14 15 16 16 13 12 10 10 8 8 10 12 12 11 10 14 20 19 17 12 9 2 13 7 10 11 12 8 5 8 5 4 4 5 4 6 8 10
13 14 14 14 14 14 16 17 17 17 18 18 16 15 13 11 12 11 13 15 14 14 14 17 22 23 16 18 17 10 21 17 5 14 11 1 8 4 5 5 5 4 4 5 7
13 13 14 15 17 16 17 18 20 19 19 20 21 20 17 8 12 13 14 17 18 17 17 15 18 21 22 20 21 24 17 13 13 13 9 15 4 6 7 6 4 4 4 2 4
13 12 12 14 15 18 19 20 20 20 22 21 22 24 20 21 17 15 14 17 19 19 18 15 17 18 20 26 21 16 16 12 17 11 12 20 19 11 12 8 7 5 5 4 1
12 12 13 14 11 15 17 20 21 22 21 23 23 25 24 23 21 19 18 18 21 22 20 20 19 18 21 21 19 18 15 18 19 14 2 11 24 21 11 8 7 7 7 6 4
17 15 13 13 14 16 17 18 21 22 23 24 26 27 27 27 24 23 22 19 20 23 23 22 21 20 20 21 10 12 15 15 17 20 11 20 25 23 14 5 8 8 8 7 6
21 19 19 15 13 12 17 18 20 20 22 22 24 27 25 26 27 26 25 22 23 24 25 24 25 22 18 16 15 20 21 18 16 26 24 18 14 14 10 13 8 8 9 7 7
24 22 21 19 15 13 14 17 20 20 21 22 23 25 26 28 29 28 27 25 23 24 27 28 27 23 21 22 28 26 16 18 20 22 25 20 14 11 6 8 6 4 6 8 9
26 27 23 21 17 16 15 16 21 25 22 20 21 24 24 26 28 28 28 28 25 25 28 29 23 24 27 26 22 16 12 24 18 12 30 15 12 10 12 9 14 4 3 4 9
26 27 26 21 18 17 16 17 19 24 22 21 21 23 22 26 29 29 29 29 27 26 27 30 25 25 31 30 31 23 21 19 16 13 15 26 12 16 17 11 17 11 8 4 5
28 27 25 24 20 18 19 20 20 18 20 27 16 19 23 26 30 30 28 29 28 27 29 29 33 30 36 35 32 28 16 16 15 20 13 11 11 7 17 18 16 15 20 9 6
29 28 25 24 21 21 21 20 19 19 19 24 18 16 21 26 31 30 28 28 29 29 32 28 30 37 37 29 31 33 23 32 24 17 17 21 12 15 12 9 17 15 16 15 8
28 28 27 24 22 22 22 20 18 17 21 24 17 16 18 21 27 29 26 26 27 26 28 30 36 42 36 30 33 35 33 25 33 29 24 17 20 19 13 14 21 29 19 20 17
27 28 28 26 24 23 23 20 17 11 13 20 16 16 15 19 25 27 26 25 26 27 11 22 33 35 27 31 33 31 33 22 16 15 17 17 22 19 21 23 26 22 22 26 24
28 28 29 28 24 24 22 20 16 12 16 17 16 17 15 17 17 25 24 22 24 26 19 15 21 22 30 31 32 28 37 29 19 18 15 14 17 18 17 22 19 28 21 36 17
31 31 30 28 27 25 23 22 21 18 16 16 16 18 16 21 23 17 19 21 23 35 33 26 18 24 26 28 33 32 17 28 32 24 21 14 17 22 26 28 26 26 25 11 8
34 35 27 30 29 26 23 22 21 22 18 18 18 15 19 22 22 18 17 25 38 33 35 35 23 12 22 29 33 34 36 31 21 24 21 17 9 18 30 27 25 25 26 31 29
34 34 27 32 29 28 24 24 29 25 21 20 22 21 23 20 19 20 21 35 40 32 32 35 29 12 10 16 22 23 25 34 28 25 24 22 15 17 25 28 36 39 39 33 23
34 34 37 32 29 29 28 27 30 22 27 23 23 28 21 23 29 19 32 36 34 28 32 37 34 16 13 18 25 36 22 19 30 26 25 23 20 26 30 33 32 33 22 17 30
34 34 38 32 31 30 29 28 28 25 27 26 25 28 33 29 25 30 38 43 34 33 29 31 31 34 24 16 20 19 35 31 29 23 24 26 28 33 37 40 45 38 36 33 32
37 34 36 35 33 32 31 29 30 29 26 30 29 30 25 32 30 36 39 44 35 28 31 30 31 41 34 9 26 12 15 23 34 32 28 21 37 40 45 53 30 33 37 38 35
38 37 36 32 34 34 33 33 30 24 32 29 31 29 19 23 21 24 25 42 38 38 34 34 30 37 47 27 14 35 20 20 20 37 38 33 25 43 43 39 37 48 46 32 37
42 39 40 33 35 36 35 41 33 31 28 31 28 31 28 26 31 30 32 28 26 36 35 32 30 33 42 40 23 26 35 22 22 19 44 40 26 32 50 52 50 28 49 42 34
Wind_Direction
344 338 338 335 332 329 307 276 243 228 192 171 259 231 227 234 245 213 205 191 179 187 180 166 161 154 145 135 128 129 124 137 66 224 137 122 99 72 63 51 39 41 43 54 53
321 317 306 304 301 294 284 258 234 242 269 304 286 256 222 218 231 243 227 200 187 190 191 180 170 157 153 131 183 125 129 128 167 253 175 123 112 92 62 59 52 50 46 52 51
297 292 289 281 280 272 269 248 243 236 251 272 290 286 259 225 220 228 230 225 202 193 198 200 183 165 165 162 222 192 101 100 175 204 150 130 128 114 94 69 49 48 46 46 58
304 296 287 281 277 265 257 256 249 246 251 249 252 270 273 261 205 220 227 218 217 205 204 202 192 176 166 208 194 191 114 93 208 207 167 145 152 125 138 111 66 41 31 39 46
314 301 290 278 278 273 270 260 251 248 243 243 239 243 255 254 243 234 230 227 216 209 209 209 204 182 171 163 214 153 119 125 185 152 150 181 213 188 99 126 108 63 40 29 37
307 305 301 294 286 274 271 268 262 256 250 241 238 240 239 244 237 235 233 232 226 212 207 209 210 200 196 173 222 205 164 182 154 155 161 173 215 222 185 186 164 123 67 34 35
341 312 305 295 287 286 280 274 265 257 254 251 243 236 237 226 227 232 232 233 227 223 214 208 217 212 190 182 203 222 165 179 188 157 171 177 239 227 236 217 186 173 137 57 28
345 339 327 306 300 291 288 283 277 265 258 254 248 240 235 233 238 234 232 232 232 223 225 218 203 216 223 199 210 219 226 222 207 164 198 151 196 200 234 230 207 199 174 171 73
8 350 326 317 311 302 291 281 276 274 267 256 251 244 238 238 238 242 236 228 230 227 222 216 205 209 213 220 208 213 236 238 210 204 91 234 198 170 198 211 222 216 212 197 176
14 6 351 331 316 307 301 303 293 283 271 258 255 249 240 239 238 238 240 234 228 228 223 219 213 211 213 203 203 242 245 261 199 169 230 239 253 170 156 219 244 218 227 227 202
16 9 3 352 332 307 300 291 294 291 281 263 256 253 243 239 239 240 234 235 231 225 221 220 217 211 215 201 171 217 231 250 205 163 234 228 271 77 186 168 289 240 227 225 221
11 8 2 356 344 331 308 298 295 284 284 270 258 254 248 239 236 235 237 233 234 229 222 221 220 208 207 187 183 213 268 219 229 264 202 206 217 141 234 281 149 246 205 214 217
3 1 359 354 347 333 317 300 296 298 295 283 267 255 250 245 236 231 233 233 228 229 228 222 216 218 206 200 207 214 231 234 259 256 204 204 226 187 190 194 232 318 171 190 211
356 354 351 348 344 331 322 316 310 301 301 284 263 255 248 244 239 233 229 230 231 226 226 224 198 221 218 210 210 198 193 230 216 259 244 186 188 205 210 191 235 203 297 229 217
349 343 340 339 338 330 327 322 317 312 297 305 298 275 250 236 234 232 230 226 228 224 223 225 214 222 215 216 211 199 184 253 238 194 208 251 233 223 211 214 233 255 236 246 242
340 337 332 331 329 324 320 313 317 308 288 295 297 264 241 239 239 232 227 230 224 223 225 216 215 234 232 221 219 205 208 207 210 230 225 241 224 251 248 233 208 253 269 266 244
337 335 329 322 321 316 311 311 313 306 303 295 297 265 249 239 241 234 223 225 227 227 231 225 221 227 231 221 219 218 207 223 218 228 236 221 237 236 243 243 250 208 215 265 246
329 328 323 317 311 308 307 306 305 306 285 291 292 275 249 244 237 233 226 219 218 214 213 234 235 238 239 229 228 224 224 221 223 233 243 235 217 242 270 257 266 245 179 222 234
321 320 320 315 306 299 299 299 285 281 270 286 273 269 251 226 235 239 226 215 220 215 197 212 250 258 243 218 223 225 222 219 217 225 236 238 270 215 246 237 252 255 254 230 189
315 313 312 308 299 293 295 289 282 274 270 270 257 248 221 214 237 237 224 212 222 215 187 177 200 222 242 223 215 206 226 222 214 213 218 227 217 238 232 249 244 248 256 271 239
310 307 308 301 294 288 284 277 264 273 254 253 243 236 210 228 232 217 199 228 224 219 204 199 173 248 242 232 216 217 215 207 211 219 215 216 223 225 220 220 219 221 227 228 213
305 298 300 294 288 281 276 272 271 270 249 247 240 210 234 217 223 211 226 231 236 223 207 213 204 224 258 253 220 215 228 227 220 204 214 200 219 245 235 218 194 211 218 228 215
295 293 292 287 285 277 272 267 268 263 260 246 234 224 224 211 209 192 228 237 239 225 216 216 208 184 205 249 223 204 189 216 214 189 213 206 218 234 235 226 219 237 241 240 223
290 287 284 281 278 273 269 271 268 259 261 249 243 233 231 212 217 206 225 227 231 227 215 220 210 180 194 216 227 242 222 212 206 209 206 206 230 233 240 235 240 243 242 240 236
289 281 279 281 279 268 264 260 264 266 255 249 245 242 236 222 227 225 224 239 231 224 222 213 204 191 190 213 216 182 250 213 215 187 196 206 231 241 234 222 199 226 238 237 234
286 283 279 277 272 275 264 256 252 246 260 249 242 243 216 223 228 236 250 251 230 235 226 221 215 209 196 190 237 212 195 207 221 207 189 195 256 227 246 251 234 231 229 227 220
284 279 278 275 271 269 278 255 240 234 233 249 233 228 215 217 217 206 213 229 250 237 234 228 227 218 212 212 206 226 216 222 226 222 204 199 244 231 232 240 236 239 230 233 228